Regional Weather Roundup
Issued by NWS Grand Forks, ND

Home | Current Version | Previous Version | Text Only | Print | Product List | Glossary On
Versions: 1 2 3 4 5 6 7 8 9 10 11 12 13 14 15 16 17 18 19 20 21 22 23 24 25 26 27 28 29 30 31 32 33 34 35 36 37 38 39 40 41 42 43 44 45 46 47 48 49 50
000
ASUS43 KFGF 272331
RWRFGF
PRAIRIE TO PINES  WEATHER ROUNDUP
NATIONAL WEATHER SERVICE EASTERN NORTH DAKOTA/GRAND FORKS ND
600 PM CDT WED AUG 27 2014

 **SATELLITE DATA USED TO AUGMENT SKY COVER AT AUTOMATED STATIONS**
 *****  WEATHER ACROSS EASTERN NORTH DAKOTA  *****

CITY           SKY/WX    TMP DP  RH WIND       PRES   REMARKS
GRAND FORKS    MOSUNNY   74  57  55 S10       30.08F
GRAND FRKS AFB SUNNY     73  59  61 S9        30.09F
GRAND FRKS NWS   N/A     72 N/A N/A S7          N/A
DEVILS LAKE    MOSUNNY   73  55  53 SE13      30.06S
FARGO          CLOUDY    73  58  59 S12       30.09F
WAHPETON ARPT  PTCLDY    72  55  56 S6        30.10F
$$

 ***** WEATHER ACROSS CENTRAL AND WESTERN NORTH DAKOTA  *****

CITY           SKY/WX    TMP DP  RH WIND       PRES   REMARKS
BISMARCK       MOSUNNY   78  60  53 SE12      30.05F
MINOT          SUNNY     77  54  44 SE10      30.01F
JAMESTOWN      PTSUNNY   74  61  63 SE9       30.08F
MINOT AFB      SUNNY     77  56  48 S10       30.00F
GARRISON         N/A     76  59  55 S12       30.03F
WILLISTON      SUNNY     83  53  35 S12       29.97F
DICKINSON      SUNNY     77  55  46 S9        30.03S
HETTINGER      MOSUNNY   75  55  49 SE7       30.06F
$$

 *****  OTHER AIRPORT OBSERVATIONS IN OUR AREA  *****

CITY           SKY/WX    TMP DP  RH WIND       PRES   REMARKS
WALHALLA         N/A     73  52  46 SW8       30.06F
GRAFTON AIRPOR FAIR      73  54  49 S9        30.08S
VALLEY CITY AR MOCLDY    73  61  64 SE8G17    30.09S
CANDO          FAIR      73  57  56 S13       30.06F
CAVALIER APRT  FAIR      73  54  49 S10       30.07F
GWINNER        PTCLDY    73  61  64 SE7       30.10S
ROLLA          FAIR      70  55  60 S9        30.06F
 ***** THE ABOVE OBSERVATIONS ARE NON NWS ARE NOT QUALITY
       CONTROLLED AND MAY MIS-REPORT RAIN FOR SNOW...
$$

  *****  WEATHER ACROSS NORTHERN MINNESOTA  *****

CITY           SKY/WX    TMP DP  RH WIND       PRES   REMARKS
FLAG ISLAND    SUNNY     68  48  49 S7        30.11F
WARROAD        SUNNY     70  54  56 E7        30.12S
ROSEAU         SUNNY     73  52  46 S8        30.11S
HALLOCK        SUNNY     73  52  46 S12       30.08F
THF RVR FALLS  SUNNY     72  50  46 S6        30.11F
BAUDETTE       SUNNY     70  51  51 NW7       30.12
WASKISH        SUNNY     70  54  56 CALM      30.13S
CROOKSTON      SUNNY     72  55  56 SW8       30.11S
$$
  *****  WEATHER ACROSS CENTRAL AND WEST MINNESOTA  *****

CITY           SKY/WX    TMP DP  RH WIND       PRES   REMARKS
FOSSTON        SUNNY     73  54  49 SW5       30.13S
BEMIDJI        SUNNY     70  51  50 W5        30.12F
PARK RAPIDS    SUNNY     69  57  65 S8        30.14F
ELBOW LAKE     FAIR      73  58  60 SE5       30.11F
WADENA         PTSUNNY   70  57  64 CALM      30.13F
DETROIT LAKES  MOSUNNY   70  57  64 S6        30.14F
MOORHEAD       MOSUNNY   73  61  64 SE6       30.10F
FERGUS FALLS   MOSUNNY   73  54  49 SE5       30.10F
MORRIS MN      SUNNY     75  57  53 SE8       30.10F
STAPLES        MOSUNNY   68  55  64 S3        30.15S
$$
  *****  WEATHER ELSEWHERE ACROSS MINNESOTA  *****

CITY           SKY/WX    TMP DP  RH WIND       PRES   REMARKS
DULUTH         MOSUNNY   70  48  45 W8        30.15F
INTRNTL FALLS  PTSUNNY   69  51  52 NW6       30.12F
ELY            MOSUNNY   64  50  59 W3        30.14F
CLOQUET        MOSUNNY   70  50  49 SW3       30.15S
WHEATON        SUNNY     70  57  64 E6        30.11F
BRAINERD       CLOUDY    68  57  68 CALM      30.15F
HIBBING        MOSUNNY   71  49  45 W6        30.14F
ALEXANDRIA     PTSUNNY   72  58  61 E7        30.14F
SAINT CLOUD    MOSUNNY   76  56  49 CALM      30.13F
MINNEAPOLIS    PTSUNNY   76  53  44 VRB3      30.12F
$$

  *****  WEATHER ACROSS SOUTH DAKOTA  *****

CITY           SKY/WX    TMP DP  RH WIND       PRES   REMARKS
SIOUX FALLS    CLOUDY    72  64  76 SE10      30.09F
BROOKINGS      NOT AVBL
WATERTOWN      CLOUDY    73  59  61 SE8       30.09F
HURON          CLOUDY    75  64  68 S14       30.05F
SISSETON         N/A     73  60  63 SE8       30.08F
ABERDEEN       CLOUDY    72  60  66 E10       30.07F
MITCHELL       PTSUNNY   74  67  78 S12       30.07F
PIERRE         CLOUDY    76  67  73 SE9       30.01F
MOBRIDGE       CLOUDY    71  64  78 NE6       30.02F
RAPID CITY     CLOUDY    71  62  73 SE8       30.06F
$$

  *****  SOME WEATHER IN NEARBY STATES *****

CITY           SKY/WX    TMP DP  RH WIND       PRES   REMARKS
GLASGOW MT     SUNNY     86  47  25 W13       29.91F
GREAT FALLS MT SUNNY     84  42  22 VRB7      30.01F
CHEYENNE WY    TSTM      55  50  83 NW13G28   30.18R
SCOTTSBLUFF NE PTSUNNY   68  63  84 W6        30.06F
OMAHA NE       CLOUDY    74  69  85 E10       30.06S
DES MOINES IA  CLOUDY    76  67  73 E9        30.07F
DAVENPORT IA   PTSUNNY   75  63  66 NE10      30.09F
CHICAGO IL     CLOUDY    73  60  63 NE9       30.12F
EAU CLAIRE WI  SUNNY     74  55  51 CALM      30.14F
LA CROSSE WI   PTSUNNY   76  58  53 VRB3      30.12F
$$

  *****  SOME NATIONAL WEATHER *****

CITY           SKY/WX    TMP DP  RH WIND       PRES   REMARKS
LA GUARDIA NY  PTCLDY    85  64  49 S12       29.86F
RALEIGH NC     PTCLDY    83  56  39 N3        29.98F
ATLANTA GA     MOSUNNY   86  58  38 NW3       30.03F
NEW ORLEANS LA CLOUDY    85  73  67 SE7       29.97F HX  91
OKLAHOMA CITY  MOSUNNY   94  63  35 E13       29.98F HX  95
ALBUQUERQUE NM MOSUNNY   79  47  32 N8        30.22F
SALT LAKE CITY PTSUNNY   74  49  41 CALM      30.19S
LOS ANGELES CA MOSUNNY   78  61  55 W14       29.99F
BOISE ID       SUNNY     89  35  14 NW9       30.06F
SEATTLE WA     MOSUNNY   83  56  39 W6        30.03F
$$

*** WEATHER ACROSS MANITOBA...SASKATCHEWAN AND ONTARIO ***
                ***ONTARIO***

CITY           SKY/WX    TMP DP  RH WIND       PRES   REMARKS
GERALDTON      PTSUNNY   59  46  63 NW5       30.13S
THUNDER BAY    MOSUNNY   66  46  48 W6        30.13F
SIOUX LOOKOUT  MOSUNNY   66  46  48 W5        30.12F
TORONTO        MOSUNNY   72  54  53 N15       30.03S
BIG TROUT LK   NOT AVBL
PICKLE LAKE    MOSUNNY   66  43  42 W8        30.07F
DRYDEN         SUNNY     68  46  45 SW8       30.13F
KENORA         MOSUNNY   68  50  52 S8        30.12F
$$
                *** MANITOBA***

CITY           SKY/WX    TMP DP  RH WIND       PRES   REMARKS
BRANDON        SUNNY     73  54  49 SW8       30.03S
DAUPHIN        SUNNY     77  59  53 S8        29.94F
ISLAND LAKE    PTSUNNY   72  55  56 S6        29.89F
PILOT MOUND      N/A     70  55  60 S13G18      N/A
THE PAS        PTSUNNY   82  54  36 W12G21    29.77R
THOMPSON       PTSUNNY   75  59  57 S9        29.71F
WINNIPEG       MOSUNNY   75  50  41 S14G21    30.06F
LYNN LAKE      MOSUNNY   73  59  60 MISG      29.65S
CHURCHILL      CLOUDY    64  54  68 S10       29.67F
GILLAM         PTSUNNY   72  55  56 S14       29.74F
$$
                ***SASKATCHEWAN***

CITY           SKY/WX    TMP DP  RH WIND       PRES   REMARKS
ESTEVAN        MOSUNNY   79  54  41 S10       29.97F
KINDERSLEY     MOSUNNY   82  54  36 W12G21    29.85R
LLOYDMINSTER   LGT RAIN  72  55  56 N10       29.87R
PRINCE ALBERT  LGT RAIN  72  61  68 N7        29.84S
REGINA         SUNNY     82  55  39 S12G18    29.88F
YORKTON        SUNNY     79  54  41 S14G22    29.91F
N. BATTLEFORD  SUNNY     79  54  41 N8        29.85R
LA RONGE       TSTM      68  57  68 SW3G33    29.75R
SASKATOON      PTSUNNY   84  54  34 SW7       29.80F
SWIFT CURRENT  SUNNY     84  48  28 W13G23    29.86S
$$
NOTE: THESE ARE AUTOMATED STATIONS WITH LIMITED QUALITY CONTROL
      "FAIR" INDICATES FEW OR NO CLOUDS BELOW 12,000 FEET WITH NO
      SIGNIFICANT WEATHER AND/OR OBSTRUCTIONS TO VISIBILITY.
      SKY/WX - SKY CONDITION AND SIGNIFICANT WEATHER.
      TMP - AIR TEMPERATURE.    DP   - DEWPOINT TEMPERATURE.
      RH  - RELATIVE HUMIDITY.  PRES - PRESSURE.
      HX  - HEAT INDEX.         WCI  - WIND CHILL INDEX.
$



USA.gov is the U.S. government's official web portal to all federal, state and local government web resources and services.